Wind_Speed
24 24 25 26 28 29 30 30 31 32 32 33 34 35 36 37 38 39 40 41 42 43 43 43 43 44 44 45 45 45 44 44 44 44 45 45 46 46 46 46 47 47 47
26 26 26 28 29 30 31 31 32 32 33 33 34 36 37 39 40 41 42 43 43 44 44 45 45 45 46 46 47 47 48 48 48 49 49 50 50 51 51 51 52 52 52
27 27 28 29 29 30 31 32 32 33 34 35 37 38 40 41 42 43 44 44 45 46 46 47 47 47 48 48 49 50 51 52 53 54 54 55 56 57 57 57 58 58 58
28 29 30 30 30 31 32 33 34 35 36 38 40 41 43 44 45 46 46 46 46 47 47 48 49 50 50 51 52 53 54 55 57 58 59 60 61 62 63 63 64 64 64
29 30 30 31 32 33 34 34 35 37 39 40 42 44 45 46 47 47 47 47 48 48 49 50 51 52 53 55 56 57 58 60 61 62 63 64 65 66 67 68 69 69 70
30 30 31 32 33 34 35 36 38 39 41 42 43 45 46 47 47 47 48 49 49 50 51 53 54 56 57 59 60 62 63 64 65 66 67 68 69 69 70 71 72 73 73
30 31 32 33 35 36 37 39 41 42 43 43 44 45 47 47 47 48 49 50 52 53 55 57 59 60 62 63 64 65 66 68 68 69 70 71 71 72 73 73 74 75 76
31 33 34 35 36 38 40 41 43 44 45 45 45 45 46 47 48 50 51 53 55 57 59 61 63 64 65 66 67 68 69 70 71 72 74 75 76 77 78 78 79 80 80
33 34 36 37 39 40 42 43 44 46 47 47 48 48 48 48 48 49 52 55 57 59 61 63 64 65 67 68 70 71 73 74 76 78 80 81 83 84 85 86 87 87 88
35 36 38 40 41 42 43 45 46 47 48 49 50 51 53 54 55 53 53 56 58 59 61 63 64 66 69 71 74 76 78 81 83 85 87 89 91 93 94 95 96 97 97
36 38 40 41 42 44 45 46 47 49 50 51 52 54 56 58 60 60 59 59 60 60 62 64 66 69 73 76 79 82 85 88 91 94 96 99 101 103 104 105 106 107 107
37 39 40 42 43 45 46 47 49 51 52 53 55 57 59 61 63 64 64 64 64 64 65 67 71 75 79 83 87 91 94 97 100 103 106 109 111 112 113 114 114 114 114
38 39 41 43 44 46 47 49 51 52 54 56 58 60 62 65 66 67 68 68 68 68 70 73 77 83 88 92 97 101 104 108 111 113 115 115 116 116 116 115 114 113 113
38 40 42 44 45 47 49 50 52 54 56 58 60 63 65 67 68 70 71 73 73 73 75 79 84 90 97 102 107 111 114 116 116 115 114 112 110 108 106 103 102 101 100
39 41 43 45 47 48 50 52 54 56 58 61 63 65 67 68 69 72 75 78 81 82 82 85 92 98 105 110 114 117 117 116 112 107 102 97 92 89 86 84 83 82 82
40 42 44 46 48 50 52 53 55 58 61 64 66 67 68 69 72 75 78 83 88 92 93 95 101 105 110 113 113 113 110 104 97 90 84 78 74 71 68 67 66 66 66
41 44 46 48 50 52 53 55 58 61 64 66 67 68 69 72 74 79 83 88 94 100 104 104 107 108 107 104 100 95 90 84 77 70 66 62 59 56 54 52 51 51 52
43 45 47 49 51 53 55 58 61 64 65 67 68 69 71 74 79 84 89 94 100 106 110 110 106 102 95 88 82 75 69 64 60 56 53 50 47 44 42 41 41 40 41
44 46 48 50 52 55 57 60 63 65 67 68 69 71 75 79 84 89 94 100 105 107 108 107 100 90 80 72 65 57 52 49 48 46 44 41 40 39 37 36 35 35 35
45 47 49 52 54 57 60 63 65 66 67 69 71 75 79 84 89 95 100 105 106 105 101 94 86 75 65 56 50 44 39 37 38 38 37 37 36 36 36 35 34 33 32
46 49 51 53 56 59 62 64 66 66 68 70 74 79 84 90 95 101 105 105 102 96 88 80 70 60 52 45 39 34 31 29 31 33 32 34 36 36 36 36 35 33 31
48 50 52 55 58 61 63 65 66 67 70 74 78 83 89 95 100 103 104 99 91 83 75 66 56 48 42 36 31 29 28 27 28 31 29 30 33 33 34 33 33 32 32
49 51 54 57 60 62 64 65 66 69 73 78 83 88 94 99 103 102 96 86 76 68 61 54 46 40 35 31 28 27 27 27 29 30 28 27 31 31 32 32 32 31 30
50 53 56 59 61 63 63 65 68 72 77 82 88 94 98 101 100 95 85 72 62 54 49 44 41 36 33 31 29 27 25 25 28 33 32 30 29 30 31 31 30 29 29
52 55 58 60 61 62 64 67 71 76 81 86 92 98 101 99 93 84 72 59 50 43 40 39 37 35 34 33 31 28 27 26 25 29 33 32 30 28 29 30 29 27 27
53 56 58 60 61 63 66 70 75 80 85 90 96 99 97 91 81 69 58 47 39 35 34 34 33 33 33 33 33 32 31 29 27 26 28 28 28 26 22 25 26 27 27
Wind_Direction
274 279 285 290 293 295 296 297 298 297 295 294 294 294 295 295 295 295 294 294 293 292 292 291 290 289 288 287 286 285 284 282 281 280 278 277 276 274 273 272 271 270 268
273 278 285 289 292 294 295 296 297 296 295 295 294 294 295 296 296 296 295 294 292 291 290 289 287 286 285 284 283 282 281 281 279 278 277 276 275 274 273 272 271 270 270
274 278 283 288 291 292 293 294 295 296 295 295 295 295 296 296 295 295 294 293 292 290 289 288 286 285 284 283 282 281 280 279 278 277 276 276 275 274 273 272 271 270 270
274 278 282 286 289 291 293 293 293 294 294 294 295 295 295 295 295 294 293 293 291 290 289 288 286 285 284 283 282 281 280 280 279 278 277 276 275 275 274 273 271 270 270
273 277 281 285 288 291 292 293 293 293 294 294 295 295 295 295 294 294 293 293 291 290 289 287 286 286 285 284 284 283 282 282 281 280 279 278 277 276 274 273 272 271 270
272 276 280 284 287 291 292 293 293 293 293 294 295 295 295 295 294 294 293 293 292 291 290 289 289 289 288 287 287 286 285 284 283 281 280 279 278 276 275 273 272 271 269
272 276 280 285 288 291 293 294 294 294 294 294 295 295 295 295 295 295 295 295 295 294 293 293 292 292 291 290 289 288 287 286 285 283 282 280 279 277 275 274 272 271 269
273 277 282 286 289 292 293 294 295 295 296 296 296 295 295 296 296 297 297 296 296 296 296 296 295 294 293 292 291 290 288 287 286 285 283 282 280 279 277 275 274 272 270
275 280 284 287 290 292 294 295 296 297 298 298 297 297 296 294 294 295 296 296 297 296 296 295 294 293 292 291 290 289 288 287 286 285 284 282 281 280 278 277 275 273 271
278 282 286 289 291 293 294 296 297 298 299 299 299 299 298 298 297 296 295 295 295 295 294 294 293 292 292 291 290 289 288 288 287 285 284 283 282 281 280 278 276 274 272
280 284 287 290 292 294 296 298 299 299 300 300 300 300 300 300 300 299 298 297 296 296 295 294 293 293 292 292 291 290 289 289 288 287 286 285 283 282 281 279 277 276 274
281 285 288 291 294 296 298 299 300 300 301 301 301 301 301 301 300 300 299 298 297 296 295 295 295 295 295 294 293 293 292 291 290 288 287 286 284 283 281 280 278 276 275
283 287 290 293 295 297 298 299 301 301 302 302 302 302 303 302 302 301 301 299 298 298 298 298 298 298 297 297 296 295 294 293 292 290 289 287 285 284 282 280 278 276 274
286 289 292 294 296 298 299 300 301 302 302 302 303 303 304 303 303 303 302 302 300 300 300 301 300 300 299 299 298 297 295 294 293 291 289 288 286 284 282 280 278 276 273
288 291 294 296 297 299 300 301 302 302 302 303 304 305 305 305 305 305 305 305 304 303 303 303 303 302 301 300 299 298 296 295 293 292 290 287 285 283 281 279 277 275 273
290 293 295 297 298 300 300 302 302 303 304 305 305 306 306 306 306 306 307 307 307 306 306 306 305 304 303 302 300 299 297 296 295 293 291 289 286 284 282 280 278 275 273
291 294 296 298 299 301 302 303 304 305 306 306 307 307 307 307 308 308 308 308 308 308 308 308 307 306 304 302 301 299 298 297 296 295 293 292 290 289 287 284 282 280 277
293 295 297 299 300 302 303 304 305 306 307 307 308 308 308 309 309 309 310 310 310 310 310 309 309 307 306 304 302 301 299 299 298 297 296 296 295 293 292 290 288 285 281
294 296 298 300 302 303 304 306 307 308 308 308 309 309 310 310 311 311 311 311 311 311 311 310 310 310 308 306 305 303 302 301 300 300 301 301 301 300 299 296 294 291 288
296 298 300 301 303 304 306 307 308 309 309 310 311 311 312 312 312 312 313 313 313 312 312 312 312 312 311 310 309 308 306 304 302 302 305 305 304 304 303 301 299 296 293
297 299 301 303 304 306 307 308 309 310 310 311 312 313 313 313 314 314 315 315 314 313 313 313 314 315 315 314 313 312 311 308 306 305 309 308 308 309 307 306 304 302 299
298 300 302 304 306 307 309 309 310 311 312 313 313 314 314 315 315 316 316 316 315 315 315 316 317 318 319 319 319 318 316 314 309 308 313 312 311 311 309 307 306 305 302
300 302 304 306 308 309 310 311 312 313 314 314 315 315 316 316 317 317 317 316 315 315 315 317 319 321 322 322 323 322 321 319 315 315 319 318 315 315 312 312 311 310 307
302 304 306 307 309 310 311 312 313 314 315 316 316 317 317 318 318 317 317 316 316 315 316 318 320 323 324 325 326 326 325 324 321 320 324 326 322 321 317 317 317 316 313
304 306 307 309 310 311 312 313 314 315 316 317 318 318 318 318 318 317 317 318 317 317 318 319 322 324 325 326 326 326 325 326 326 323 324 327 327 327 322 321 322 323 322
305 307 309 310 311 312 313 314 315 317 318 318 319 319 319 319 319 318 319 319 319 319 319 320 321 322 323 324 325 326 326 327 328 327 324 327 327 329 327 323 325 327 327
Height
5802 5802 5801 5800 5799 5798 5796 5795 5793 5791 5789 5787 5785 5783 5782 5780 5777 5775 5772 5770 5768 5765 5763 5761 5758 5756 5754 5751 5750 5748 5747 5746 5745 5745 5744 5743 5743 5742 5742 5742 5742 5742 5743
5797 5797 5796 5795 5794 5792 5791 5789 5787 5785 5783 5781 5778 5776 5774 5772 5769 5767 5764 5761 5759 5756 5754 5751 5749 5746 5744 5742 5740 5738 5737 5735 5734 5733 5732 5731 5730 5730 5730 5730 5730 5730 5730
5792 5791 5791 5790 5788 5786 5785 5783 5781 5779 5777 5774 5771 5768 5766 5764 5761 5758 5755 5752 5749 5746 5743 5741 5738 5736 5733 5731 5729 5727 5725 5723 5722 5720 5719 5718 5717 5716 5716 5715 5715 5716 5716
5786 5785 5785 5783 5782 5780 5779 5777 5775 5773 5770 5767 5764 5760 5758 5755 5752 5748 5745 5742 5739 5736 5733 5730 5727 5724 5721 5719 5716 5714 5712 5710 5708 5706 5704 5702 5701 5700 5699 5699 5699 5699 5699
5780 5779 5778 5777 5776 5774 5772 5770 5768 5765 5762 5759 5755 5752 5748 5745 5742 5738 5735 5732 5728 5725 5721 5718 5715 5711 5708 5705 5702 5699 5697 5694 5692 5689 5687 5685 5684 5682 5681 5680 5680 5680 5680
5773 5773 5772 5770 5769 5767 5765 5762 5760 5757 5754 5751 5747 5743 5739 5735 5732 5728 5725 5720 5716 5713 5709 5705 5701 5697 5693 5690 5686 5683 5680 5677 5674 5671 5668 5666 5664 5663 5661 5660 5659 5659 5659
5766 5766 5765 5763 5762 5760 5757 5754 5751 5748 5745 5742 5738 5734 5729 5725 5721 5717 5713 5708 5704 5699 5695 5690 5686 5681 5677 5673 5668 5664 5660 5657 5654 5650 5648 5645 5643 5641 5639 5638 5637 5636 5636
5760 5759 5757 5756 5754 5751 5748 5745 5742 5738 5735 5731 5728 5724 5720 5717 5711 5706 5701 5696 5691 5686 5680 5674 5669 5664 5659 5654 5649 5645 5640 5636 5632 5629 5625 5622 5619 5617 5615 5614 5612 5612 5611
5752 5751 5750 5748 5745 5742 5739 5736 5732 5728 5723 5719 5716 5712 5708 5706 5703 5699 5692 5685 5679 5672 5666 5660 5653 5647 5641 5636 5631 5626 5621 5616 5611 5606 5602 5598 5594 5591 5589 5586 5585 5584 5583
5745 5743 5742 5739 5736 5733 5729 5725 5721 5717 5712 5708 5703 5698 5694 5689 5686 5685 5682 5674 5667 5660 5653 5646 5638 5631 5624 5618 5611 5605 5599 5593 5587 5581 5576 5571 5566 5562 5558 5555 5553 5552 5552
5737 5735 5733 5730 5727 5723 5719 5715 5710 5705 5701 5696 5691 5685 5680 5674 5668 5664 5663 5660 5653 5645 5637 5630 5621 5613 5605 5597 5590 5583 5575 5567 5560 5553 5547 5540 5534 5529 5524 5520 5517 5515 5514
5729 5727 5724 5721 5717 5713 5709 5704 5699 5694 5688 5683 5677 5671 5666 5660 5653 5647 5643 5640 5635 5630 5621 5612 5602 5592 5582 5573 5564 5555 5546 5537 5529 5520 5512 5504 5497 5490 5485 5480 5477 5474 5473
5721 5718 5715 5712 5708 5703 5698 5693 5688 5682 5676 5670 5664 5657 5650 5643 5636 5629 5623 5618 5615 5610 5602 5593 5581 5568 5556 5545 5534 5523 5512 5501 5491 5481 5471 5462 5453 5446 5441 5436 5433 5430 5429
5712 5709 5706 5702 5698 5693 5688 5682 5676 5670 5664 5657 5650 5643 5635 5627 5619 5610 5603 5596 5592 5589 5582 5573 5559 5544 5528 5514 5500 5487 5475 5463 5451 5440 5429 5419 5411 5404 5398 5394 5390 5388 5387
5704 5700 5697 5692 5687 5682 5677 5671 5665 5658 5651 5644 5636 5628 5620 5611 5602 5593 5583 5573 5564 5560 5558 5551 5534 5518 5499 5481 5464 5448 5433 5421 5410 5399 5390 5381 5374 5368 5363 5359 5356 5354 5352
5695 5691 5687 5682 5677 5671 5665 5659 5652 5645 5638 5630 5622 5613 5604 5595 5586 5575 5565 5553 5540 5528 5524 5521 5505 5489 5468 5447 5428 5409 5394 5381 5371 5362 5354 5348 5343 5339 5335 5332 5329 5327 5325
5686 5681 5677 5671 5666 5660 5654 5647 5640 5632 5624 5616 5607 5598 5589 5579 5569 5558 5546 5533 5518 5501 5490 5487 5471 5453 5434 5415 5398 5380 5364 5352 5344 5336 5329 5324 5320 5317 5314 5311 5308 5306 5304
5676 5671 5666 5661 5655 5648 5642 5635 5627 5619 5610 5602 5592 5583 5573 5563 5552 5539 5526 5511 5495 5476 5457 5446 5439 5420 5402 5384 5369 5357 5345 5333 5324 5318 5312 5307 5304 5301 5298 5295 5292 5290 5287
5666 5661 5656 5650 5643 5636 5629 5622 5614 5605 5596 5587 5577 5567 5557 5545 5533 5520 5505 5488 5471 5452 5430 5412 5401 5389 5374 5359 5348 5339 5329 5319 5311 5304 5299 5295 5292 5288 5285 5282 5279 5276 5273
5656 5651 5645 5638 5632 5624 5617 5609 5600 5591 5582 5572 5561 5551 5539 5526 5512 5498 5482 5464 5445 5426 5407 5389 5375 5364 5352 5342 5331 5324 5318 5310 5302 5295 5291 5286 5282 5278 5274 5270 5267 5264 5261
5646 5640 5634 5627 5620 5612 5604 5596 5587 5578 5568 5558 5546 5533 5520 5505 5490 5473 5455 5437 5418 5400 5384 5370 5358 5347 5338 5328 5321 5314 5308 5303 5296 5288 5286 5280 5274 5270 5264 5259 5255 5252 5249
5635 5629 5623 5616 5608 5600 5591 5582 5573 5564 5553 5542 5530 5516 5501 5485 5469 5451 5431 5412 5392 5376 5363 5354 5345 5335 5327 5319 5313 5306 5301 5296 5291 5285 5280 5275 5267 5262 5256 5251 5246 5242 5238
5624 5618 5611 5604 5596 5587 5578 5569 5559 5549 5537 5524 5511 5497 5482 5464 5445 5428 5412 5394 5378 5362 5349 5341 5334 5327 5320 5313 5307 5302 5296 5289 5282 5277 5274 5270 5262 5255 5248 5243 5238 5233 5228
5613 5607 5599 5592 5583 5574 5565 5555 5546 5534 5522 5507 5492 5476 5460 5443 5423 5407 5393 5379 5365 5352 5341 5333 5326 5319 5313 5307 5301 5296 5291 5286 5278 5269 5265 5261 5255 5249 5242 5235 5230 5225 5220
5602 5595 5587 5579 5571 5562 5552 5542 5531 5519 5506 5491 5474 5455 5437 5421 5404 5388 5375 5365 5354 5344 5334 5326 5319 5312 5306 5300 5295 5290 5285 5280 5275 5267 5259 5254 5249 5243 5236 5229 5224 5218 5212
5591 5584 5575 5566 5558 5549 5538 5527 5515 5503 5490 5474 5456 5436 5416 5399 5384 5370 5360 5352 5345 5337 5330 5322 5315 5308 5302 5295 5289 5283 5278 5273 5268 5263 5257 5251 5244 5238 5234 5226 5220 5213 5207